Hourly Data Report for December 24, 2017

VICTORIA UNIVERSITY CS
BRITISH COLUMBIA

48°27'25.200" N
123°18'16.600" W
60.10 m
1018598
71783
WYJ

Download Data

Hourly Data (December 2017)
Hourly Data Report for December 24, 2017
TIME
LST
Temp Definition
°C
Dew Point Definition
°C
Rel Hum Definition
%
Precip. Amount Definition
mm

Wind Dir Definition
10's deg

Wind Spd Definition
km/h
Visibility Definition
km
Stn Press Definition
kPa
Hmdx Definition


Wind Chill Definition


Weather Definition


00:00 0.1 -5.8 64 0.0 35 4   102.31     LegendNANA
01:00 -1.1 -5.4 73 0.0 33 1   102.29   -1 LegendNANA
02:00 0.4 -5.0 67 0.0 3 2   102.24     LegendNANA
03:00 -0.7 -5.6 70 0.0 32 1   102.20   -1 LegendNANA
04:00 0.4 -4.1 71 0.0 1 7   102.12     LegendNANA
05:00 -0.5 -4.3 75 0.0 34 2   102.01   -1 LegendNANA
06:00 0.8 -4.9 66 0.0 1 4   101.91     LegendNANA
07:00 0.6 -5.5 64 0.0 2 4   101.82     LegendNANA
08:00 0.3 -3.7 74 0.0 1 3   101.77     LegendNANA
09:00 1.0 -5.7 61 0.0 1 8   101.75     LegendNANA
10:00 1.3 -5.1 62 0.0 3 5   101.74     LegendNANA
11:00 1.4 -5.0 62 0.0 1 8   101.70     LegendNANA
12:00 1.6 -5.2 61 0.0 1 6   101.66     LegendNANA
13:00 1.7 -4.6 63 0.0 2 6   101.62     LegendNANA
14:00 1.8 -4.8 62 0.0 2 8   101.60     LegendNANA
15:00 1.9 -4.7 62 0.0 3 5   101.59     LegendNANA
16:00 2.0 -4.6 62 0.0 1 5   101.55     LegendNANA
17:00 0.8 -2.9 76 0.0 6 2   101.55     LegendNANA
18:00 -0.1 -0.8 95 1.0 3 4   101.51   -1 LegendNANA
19:00 -0.3 -0.8 96 1.1 2 7   101.47   -3 LegendNANA
20:00 0.0 -0.6 96 0.2 3 5   101.45   -2 LegendNANA
21:00 0.0 -0.8 94 0.0 3 3   101.47   -1 LegendNANA
22:00 0.2 -1.1 91 0.0 34 5   101.45     LegendNANA
23:00 0.1 -1.1 91 0.0 34 6   101.47     LegendNANA

Notes on Data Quality.

Legend

  • E = Estimated
  • M = Missing
  • NA = Not Available*
  • [empty] = Indicates an unobserved value
Date modified: